Hourly Weather Centerville

Today, 23 June, Wednesday

Time Temperature Precipitation Wind Pressure Humidity
00:00 +13°C° 0 mm 2 mps 737 mmHg 75%
01:00 +12°C° 0 mm 2 mps 737 mmHg 76%
02:00 +12°C° 0 mm 2 mps 737 mmHg 78%
03:00 +12°C° 0 mm 2 mps 738 mmHg 79%
04:00 +13°C° 0 mm 2 mps 738 mmHg 78%
05:00 +13°C° 0 mm 2 mps 738 mmHg 78%
06:00 +14°C° 0 mm 2 mps 739 mmHg 77%
07:00 +16°C° 0 mm 2 mps 739 mmHg 72%
08:00 +17°C° 0 mm 2 mps 739 mmHg 66%
09:00 +19°C° 0 mm 2 mps 740 mmHg 61%
10:00 +20°C° 0 mm 2 mps 740 mmHg 58%
11:00 +21°C° 0 mm 2 mps 740 mmHg 56%
12:00 +22°C° 0 mm 3 mps 740 mmHg 53%
13:00 +24°C° 0 mm 3 mps 740 mmHg 54%
14:00 +24°C° 0 mm 3 mps 739 mmHg 54%
15:00 +23°C° 0 mm 4 mps 739 mmHg 54%
16:00 +22°C° 0 mm 3 mps 739 mmHg 60%
17:00 +22°C° 0 mm 3 mps 739 mmHg 66%
18:00 +21°C° 0 mm 2 mps 739 mmHg 72%
19:00 +19°C° 0 mm 2 mps 739 mmHg 72%
20:00 +18°C° 0 mm 2 mps 739 mmHg 72%
21:00 +17°C° 0 mm 3 mps 739 mmHg 71%
22:00 +16°C° 0 mm 3 mps 739 mmHg 69%
23:00 +16°C° 0 mm 3 mps 739 mmHg 67%

Tomorrow, 24 June, Thursday

Time Temperature Precipitation Wind Pressure Humidity
00:00 +16°C° 0 mm 3 mps 738 mmHg 66%
01:00 +14°C° 0 mm 3 mps 738 mmHg 67%
02:00 +15°C° 0 mm 2 mps 738 mmHg 69%
03:00 +14°C° 0 mm 2 mps 738 mmHg 71%
04:00 +15°C° 0 mm 2 mps 738 mmHg 72%
05:00 +14°C° 0 mm 3 mps 738 mmHg 73%
06:00 +16°C° 0 mm 3 mps 738 mmHg 74%
07:00 +18°C° 0 mm 3 mps 738 mmHg 69%
08:00 +21°C° 0 mm 3 mps 739 mmHg 65%
09:00 +23°C° 0 mm 4 mps 739 mmHg 60%
10:00 +25°C° 0 mm 4 mps 739 mmHg 59%
11:00 +27°C° 0 mm 5 mps 738 mmHg 58%
12:00 +28°C° 0 mm 5 mps 738 mmHg 57%
13:00 +29°C° 0 mm 5 mps 738 mmHg 58%
14:00 +29°C° 0 mm 4 mps 738 mmHg 60%
15:00 +29°C° 0 mm 4 mps 738 mmHg 62%
16:00 +28°C° 0 mm 4 mps 737 mmHg 67%
17:00 +27°C° 0 mm 3 mps 737 mmHg 73%
18:00 +25°C° 0 mm 2 mps 737 mmHg 79%
19:00 +24°C° 0 mm 2 mps 737 mmHg 81%
20:00 +22°C° 0 mm 3 mps 737 mmHg 83%
21:00 +21°C° 0 mm 3 mps 737 mmHg 85%
22:00 +21°C° 0 mm 3 mps 737 mmHg 84%
23:00 +21°C° 0 mm 3 mps 737 mmHg 84%

Day after tomorrow, 25 June, Friday

Time Temperature Precipitation Wind Pressure Humidity
00:00 +21°C° 0 mm 3 mps 737 mmHg 83%
01:00 +20°C° 0 mm 3 mps 737 mmHg 84%
02:00 +20°C° 0 mm 3 mps 737 mmHg 85%
03:00 +20°C° 0 mm 3 mps 737 mmHg 87%
04:00 +20°C° 0 mm 3 mps 737 mmHg 86%
05:00 +20°C° 0 mm 3 mps 738 mmHg 85%
06:00 +20°C° 0 mm 4 mps 738 mmHg 84%
07:00 +21°C° 0 mm 4 mps 738 mmHg 81%
08:00 +23°C° 0 mm 5 mps 738 mmHg 77%
09:00 +25°C° 0 mm 5 mps 738 mmHg 73%
10:00 +26°C° 0 mm 5 mps 738 mmHg 70%
11:00 +26°C° 0 mm 5 mps 738 mmHg 67%
12:00 +27°C° 0 mm 5 mps 738 mmHg 65%
13:00 +27°C° 0 mm 5 mps 738 mmHg 67%
14:00 +27°C° 0 mm 5 mps 738 mmHg 69%
15:00 +27°C° 0 mm 5 mps 737 mmHg 72%
16:00 +26°C° 0 mm 4 mps 737 mmHg 74%
17:00 +26°C° 0 mm 3 mps 737 mmHg 77%
18:00 +25°C° 0 mm 3 mps 736 mmHg 80%
19:00 +25°C° 0 mm 3 mps 736 mmHg 79%
20:00 +24°C° 0 mm 3 mps 736 mmHg 79%
21:00 +22°C° 0 mm 3 mps 737 mmHg 78%
22:00 +22°C° 0 mm 3 mps 736 mmHg 78%
23:00 +22°C° 0 mm 3 mps 736 mmHg 77%

26 June, Saturday

Time Temperature Precipitation Wind Pressure Humidity
00:00 +22°C° 0 mm 3 mps 736 mmHg 76%
01:00 +21°C° 0 mm 3 mps 736 mmHg 78%
02:00 +21°C° 0 mm 3 mps 736 mmHg 80%
03:00 +20°C° 0 mm 3 mps 736 mmHg 81%
04:00 +21°C° 0 mm 4 mps 736 mmHg 78%
05:00 +21°C° 0 mm 4 mps 736 mmHg 74%
06:00 +21°C° 0 mm 4 mps 736 mmHg 70%
07:00 +21°C° 0 mm 5 mps 736 mmHg 72%
08:00 +22°C° 0 mm 5 mps 736 mmHg 74%
09:00 +22°C° 0 mm 6 mps 736 mmHg 75%
10:00 +24°C° 0 mm 6 mps 736 mmHg 72%
11:00 +27°C° 0 mm 7 mps 736 mmHg 68%
12:00 +29°C° 0 mm 7 mps 736 mmHg 64%
13:00 +29°C° 0.3 mm 7 mps 735 mmHg 66%
14:00 +29°C° 0.3 mm 7 mps 735 mmHg 69%
15:00 +29°C° 0.3 mm 7 mps 735 mmHg 71%
16:00 +28°C° 0.4 mm 6 mps 735 mmHg 76%
17:00 +27°C° 0.4 mm 6 mps 735 mmHg 80%
18:00 +26°C° 0.4 mm 5 mps 735 mmHg 84%
19:00 +25°C° 0.2 mm 5 mps 735 mmHg 86%
20:00 +25°C° 0.2 mm 4 mps 735 mmHg 88%
21:00 +23°C° 0.2 mm 4 mps 735 mmHg 90%
22:00 +22°C° 0.6 mm 4 mps 735 mmHg 92%
23:00 +22°C° 0.6 mm 3 mps 736 mmHg 94%

27 June, Sunday

Time Temperature Precipitation Wind Pressure Humidity
00:00 +21°C° 0.6 mm 3 mps 736 mmHg 96%
01:00 +21°C° 0.1 mm 3 mps 736 mmHg 96%
02:00 +21°C° 0.1 mm 3 mps 736 mmHg 97%
03:00 +21°C° 0.1 mm 2 mps 735 mmHg 97%
04:00 +21°C° 0.1 mm 3 mps 736 mmHg 97%
05:00 +22°C° 0.1 mm 3 mps 736 mmHg 96%
06:00 +22°C° 0.1 mm 3 mps 736 mmHg 95%
07:00 +22°C° 0.3 mm 3 mps 737 mmHg 95%
08:00 +22°C° 0.3 mm 3 mps 737 mmHg 94%
09:00 +24°C° 0.3 mm 3 mps 737 mmHg 93%
10:00 +25°C° 0.8 mm 4 mps 737 mmHg 87%
11:00 +27°C° 0.8 mm 4 mps 737 mmHg 82%
12:00 +28°C° 0.8 mm 5 mps 737 mmHg 77%
13:00 +27°C° 1.6 mm 4 mps 737 mmHg 81%
14:00 +27°C° 1.6 mm 3 mps 737 mmHg 85%
15:00 +26°C° 1.6 mm 3 mps 737 mmHg 89%
16:00 +25°C° 1.5 mm 2 mps 737 mmHg 91%
17:00 +24°C° 1.5 mm 2 mps 737 mmHg 93%
18:00 +24°C° 1.5 mm 2 mps 737 mmHg 95%
19:00 +23°C° 0.4 mm 2 mps 737 mmHg 95%
20:00 +23°C° 0.4 mm 2 mps 737 mmHg 95%
21:00 +23°C° 0.4 mm 2 mps 737 mmHg 95%
22:00 +23°C° 0.8 mm 2 mps 737 mmHg 95%
23:00 +23°C° 0.8 mm 2 mps 737 mmHg 95%

28 June, Monday

Time Temperature Precipitation Wind Pressure Humidity
00:00 +23°C° 0.8 mm 2 mps 737 mmHg 95%
01:00 +23°C° 1.2 mm 2 mps 737 mmHg 96%
02:00 +21°C° 1.2 mm 2 mps 737 mmHg 97%
03:00 +21°C° 1.2 mm 2 mps 737 mmHg 97%
04:00 +21°C° 1.4 mm 2 mps 738 mmHg 97%
05:00 +21°C° 1.4 mm 2 mps 738 mmHg 97%
06:00 +21°C° 1.4 mm 2 mps 738 mmHg 97%
07:00 +24°C° 0.3 mm 2 mps 739 mmHg 92%
08:00 +25°C° 0.3 mm 2 mps 739 mmHg 88%
09:00 +27°C° 0.3 mm 3 mps 739 mmHg 83%
10:00 +27°C° 0.7 mm 3 mps 739 mmHg 80%
11:00 +28°C° 0.7 mm 3 mps 739 mmHg 77%
12:00 +29°C° 0.7 mm 3 mps 739 mmHg 74%
13:00 +29°C° 0.8 mm 3 mps 739 mmHg 75%
14:00 +28°C° 0.8 mm 2 mps 739 mmHg 76%
15:00 +28°C° 0.8 mm 2 mps 739 mmHg 77%
16:00 +28°C° 1 mm 2 mps 739 mmHg 81%
17:00 +27°C° 1 mm 2 mps 739 mmHg 85%
18:00 +26°C° 1 mm 1 mps 739 mmHg 90%
19:00 +25°C° 0.4 mm 1 mps 739 mmHg 91%
20:00 +24°C° 0.4 mm 1 mps 739 mmHg 93%
21:00 +23°C° 0.4 mm 1 mps 739 mmHg 95%
22:00 +23°C° 1.5 mm 1 mps 739 mmHg 96%
23:00 +23°C° 1.5 mm 1 mps 739 mmHg 96%
Show more

We Need Your Consent

Meteoprog and our Service Providers may store and access personal data such as cookies, device identifiers or other similar technologies on your device and process such data to personalise content and ads, as well as provide social media features and to analyse the traffic.

  • Store and/or access information on your device

    Cookies, device identifiers or other information can be stored or accessed on your device for the purposes indicated above.

  • Personalised ads and content, ad and content measurement, audience insights, and products development

    Ads and content can be personalised based on a profile. More data can be added to better personalise ads and content. Ad and content performance can be measured. Insights about the audience who saw the ads and content can be derived. Such data can be used to develop or improve user’s experience, systems and software.

By clicking ‘I Agree’ you will allow the use of indicated cookies, device identifiers, web beacons or other similar technologies. Your settings can be changed in the browser on your device.

For certain purposes, legitimate interests may be relied on, rather than consent. You can read more about this in our Privacy and Cookie Policy.